Regional Weather Roundup
Issued by NWS

Home | Current Version | Previous Version | Text Only | Print | Product List | Glossary Off
Versions: 1 2 3 4 5 6 7 8 9 10 11 12 13 14 15 16 17 18 19 20 21 22 23 24 25 26 27 28 29 30 31 32 33 34 35 36 37 38 39 40 41 42 43 44 45 46 47 48 49 50

000
ASUS43 KDMX 240406
RWRIA

WEATHER ROUNDUP FOR IOWA
NATIONAL WEATHER SERVICE DES MOINES IA
1000 PM CST THU FEB 23 2017

NOTE: "FAIR" INDICATES FEW OR NO CLOUDS BELOW 12,000 FEET WITH NO
SIGNIFICANT WEATHER AND/OR OBSTRUCTIONS TO VISIBILITY.

* - THESE STATIONS ARE NOT NWS STATIONS...THUS NOT UNDER NWS
QUALITY CONTROL.  THEY ALSO DO NOT REPORT WEATHER SUCH
AS PRECIPITATION OR FOG.

IAZ001>003-012>014-020>022-031>034-043>046-240500-
   NORTHWEST IOWA

CITY           SKY/WX    TMP DP  RH WIND       PRES   REMARKS
CARROLL *      LGT RAIN  34  34 100 NE25G36   29.62R WCI  21
CHEROKEE *     LGT SNOW  31  31 100 NE21G32   29.70F VSB 3/4 WCI  18
DENISON *      LGT RAIN  32  32 100 NE26G40   29.56F WCI  18
LE MARS *      LGT SNOW  30  28  93 NE21G30   29.74F WCI  17
ORANGE CITY *  LGT SNOW  28  28 100 NE16G23   29.75S WCI  17
SHELDON *      SNOW      28  28 100 NE26G32   29.74S VSB 1/2 WCI  13
SIOUX CITY     HVY SNOW  33  30  88 NE25G36   29.70F VSB 1/4 WCI  20
SPENCER        SNOW      29  28  96 NE29G36   29.74F VSB 1/2 WCI  14
STORM LAKE *   HVY RAIN  30  30 100 NE36G44   29.66F VSB 1/2 WCI  14
$$

IAZ055>058-069>071-079>083-090>094-240500-
   SOUTHWEST IOWA

CITY           SKY/WX    TMP DP  RH WIND       PRES   REMARKS
ATLANTIC *     LGT RAIN  37  37 100 NE20G33   29.51F WCI  27
CLARINDA *     CLOUDY    43  43 100 NE17G25   29.48F FOG
COUNCIL BLFS * LGT RAIN  34  34 100 N21       29.55F WCI  22
CRESTON *      MIX PCPN  41  41 100 NE25      29.49F
HARLAN  *      CLOUDY    36  34  93 NE24G37   29.59F WCI  24
LAMONI         CLOUDY    44  43  96 NE16      29.46F FOG
RED OAK *      CLOUDY    41  39  93 NE21G33   29.49F FOG
SHENANDOAH *   CLOUDY    41  41 100 N12G23    29.51R FOG
$$

IAZ047>049-059>061-072>074-084-240500-
   CENTRAL IOWA

CITY           SKY/WX    TMP DP  RH WIND       PRES   REMARKS
AMES           LGT RAIN  38  38 100 NE18G28   29.63R FOG     WCI  28
ANKENY *       CLOUDY    41  39  93 NE12G21   29.60R FOG
BOONE *        LGT RAIN  36  36 100 NE22G30   29.60F WCI  24
CHARITON *     CLOUDY    43  43 100 NE16G23   29.49F FOG
DES MOINES     DRIZZLE   42  40  92 NE16G23   29.57F FOG
GRINNELL*      LGT RAIN  40  39  96 NE25G33   29.56F WCI  30
KNOXVILLE *    CLOUDY    43  41  93 E21G29    29.51F FOG
MARSHALLTOWN   CLOUDY    38  38 100 E21G31    29.60R FOG     WCI  28
NEWTON *       CLOUDY    41  39  93 NE25G31   29.54F FOG
PELLA *        CLOUDY    42  41  98 E13G24    29.54F FOG
PERRY *        LGT RAIN  37  37  98 NE16G23   29.60F WCI  28
$$

IAZ004>006-015-016-023>025-035-036-240500-
   NORTH CENTRAL IOWA

CITY           SKY/WX    TMP DP  RH WIND       PRES   REMARKS
ALGONA *       FOG       32  32 100 MISG      29.71F VSB<1/4
CLARION *      CLOUDY    34  34 100 NE30G36   29.67F FOG     WCI  20
ESTHERVILLE    SNOW      28  28 100 N23       29.77R VSB 1/2 WCI  14
FORT DODGE *   CLOUDY    34  28  80 NE22      29.67F WCI  22
MASON CITY     TSTM      32  32 100 NE25G36   29.72F VSB 1/2 WCI  19
FOREST CITY *  SNOW      32  32 100 NE16G30   29.74R VSB 1/2 WCI  21
WEBSTER CITY * LGT RAIN  34  32  93 NE22G30   29.64F WCI  22
IOWA FALLS *   LGT RAIN  35  33  94 NE21G29   29.66R WCI  23
$$

IAZ007>011-017>019-026>030-037>042-050>054-066-240500-
   NORTHEAST IOWA

CITY           SKY/WX    TMP DP  RH WIND       PRES   REMARKS
CEDAR RAPIDS   LGT RAIN  39  39 100 E23       29.59F WCI  28
CHARLES CITY * MIX PCPN  34  34 100 NE24G37   29.63F WCI  21
CLINTON *      CLOUDY    37  35  92 NE24      29.65F WCI  26
DECORAH *      LGT SNOW  34  32  93 NE20G26   29.68F WCI  22
DUBUQUE        CLOUDY    36  36 100 NE22G29   29.67F FOG     WCI  25
MONTICELLO *   LGT RAIN  37  37 100 NE17G30   29.64F WCI  28
OELWEIN *      LGT RAIN  36  36 100 NE20G35   29.67R WCI  25
WATERLOO       MIX PCPN  37  34  89 NE24G30   29.63F WCI  26
$$

IAZ064-065-067-068-078-240500-
   EAST CENTRAL IOWA

CITY           SKY/WX    TMP DP  RH WIND       PRES   REMARKS
DAVENPORT      LGT RAIN  38  35  89 E24G30    29.64S WCI  27
IOWA CITY      CLOUDY    41  36  82 NE16G32   29.62F
MUSCATINE *    CLOUDY    41  39  93 E17G25    29.60F
QUAD CITIES    CLOUDY    42  36  79 NE20G28   29.61F
$$

IAZ062-063-075>077-085>089-095>099-240500-
   SOUTHEAST IOWA

CITY           SKY/WX    TMP DP  RH WIND       PRES   REMARKS
BURLINGTON     CLOUDY    47  45  93 NE12      29.54S
FAIRFIELD *    CLOUDY    45  43  93 E18G25    29.53F FOG
KEOKUK *       PTCLDY    50  48  93 NE13G20   29.49F
CENTERVILLE *  CLOUDY    45  45 100 NE12      29.49F FOG
OTTUMWA        CLOUDY    43  43 100 E20       29.52F FOG
WASHINGTON *   CLOUDY    41  41 100 E20G30    29.57F
$$

ABBREVIATIONS USED IN REMARKS
   TC - TEMPERATURES IN CELSIUS
  WCI - WIND CHILL INDEX
   HX - HEAT INDEX
  VSB - VISIBILITY
$$





USA.gov is the U.S. government's official web portal to all federal, state and local government web resources and services.